User: anonymous   Login
Location: Janeiro
(34.9957°N, 76.7652°W)
Time: 13:32:50
(UTC+00:00)
Language:

CZ-4C R/B - Orbit

View from above orbital plane
View from above orbital plane
View from above satellite
View from above satellite

Ground track
Ground track

The orbit data is extracted from the following two-line orbital elements,

1 36416U 10009D   20052.66064248 -.00000083 +00000-0 +11661-4 0  9996
2 36416 063.4269 154.8771 0483500 355.2442 004.4085 13.69564054498353
Epoch (UTC): 21 February 2020 15:51:19
Eccentricity: 0.0483500
inclination: 63.4269°
perigee height: 644 km
apogee height: 1358 km
right ascension of ascending node: 154.8771°
argument of perigee: 355.2442°
revolutions per day: 13.69564054
mean anomaly at epoch: 4.4085°
orbit number at epoch: 49835

The dashed part of the orbit path shows where the satellite is in the earth's shadow,  

DLR